Location: *
(47.8307°S, 178.3954°E)
Time: 08:08:39
(UTC+00:00)

Cosmos 1833 Rocket - Pass Details

Date: 12 August 2024
Orbit: 830 x 840 km, 71.0° (Epoch: 18 September)

Event Time Altitude Azimuth Distance (km) Brightness Sun altitude
Exits shadow 17:39:27 21° 295° (WNW) 1,815 3.9 -16.1°
Drops below altitude 10° 17:42:40 10° 329° (NNW) 2,449 4.9 -15.6°
Sets 17:45:36 0° 344° (NNW) 3,374 5.7 -15.1°
